Location: Newark
(43.6486°N, 79.3853°W)
Time: 12:23:15
(UTC+00:00)

ISS - Pass Details

Date: 09 April 2020
Orbit: 417 x 419 km, 51.6° (Epoch: 03 June)

Event Time Altitude Azimuth Distance (km) Brightness Sun altitude
Rises 00:25:42 0° 287° (WNW) 2,364 2.9 -6.5°
Reaches altitude 10° 00:28:39 10° 259° (WSW) 1,494 0.1 -7.0°
Maximum altitude 00:30:19 13° 229° (SW) 1,310 -0.8 -7.3°
Drops below altitude 10° 00:31:59 10° 199° (SSW) 1,487 -0.9 -7.6°
Sets 00:34:54 0° 170° (S) 2,344 -0.2 -8.1°
